• In Hungary
  • List of Countries
  • For 7 days
  • Water Temperature
  • Satellite Maps
  • Weather Map
  • News
  • Weather Widgets
  • user-avatar
    Login

    Hourly Weather Ischino

    Today, 22 September, Saturday

    Time Temperature Precipitation Wind Pressure Humidity
    00:00 +16°C° 0 mm 2 mps 742 mmHg 93%
    01:00 +16°C° 0 mm 2 mps 742 mmHg 94%
    02:00 +16°C° 0 mm 2 mps 742 mmHg 96%
    03:00 +16°C° 0 mm 3 mps 742 mmHg 95%
    04:00 +16°C° 0 mm 3 mps 741 mmHg 94%
    05:00 +16°C° 0 mm 3 mps 741 mmHg 94%
    06:00 +17°C° 0 mm 4 mps 741 mmHg 88%
    07:00 +18°C° 0 mm 4 mps 741 mmHg 82%
    08:00 +19°C° 0 mm 5 mps 740 mmHg 76%
    09:00 +20°C° 0 mm 5 mps 740 mmHg 69%
    10:00 +22°C° 0 mm 5 mps 740 mmHg 63%
    11:00 +23°C° 0 mm 6 mps 739 mmHg 56%
    12:00 +24°C° 0 mm 6 mps 739 mmHg 54%
    13:00 +24°C° 0 mm 6 mps 738 mmHg 52%
    14:00 +24°C° 0 mm 6 mps 737 mmHg 51%
    15:00 +23°C° 0 mm 5 mps 737 mmHg 55%
    16:00 +22°C° 0 mm 5 mps 737 mmHg 60%
    17:00 +21°C° 0 mm 4 mps 737 mmHg 64%
    18:00 +19°C° 0.4 mm 4 mps 736 mmHg 71%
    19:00 +18°C° 0.4 mm 4 mps 736 mmHg 78%
    20:00 +15°C° 0.4 mm 4 mps 736 mmHg 85%
    21:00 +14°C° 0.2 mm 3 mps 736 mmHg 87%
    22:00 +13°C° 0.2 mm 3 mps 736 mmHg 89%
    23:00 +11°C° 0.2 mm 3 mps 736 mmHg 90%

    Tomorrow, 23 September, Sunday

    Time Temperature Precipitation Wind Pressure Humidity
    00:00 +11°C° 0.4 mm 3 mps 736 mmHg 90%
    01:00 +10°C° 0.4 mm 3 mps 736 mmHg 90%
    02:00 +10°C° 0.4 mm 3 mps 736 mmHg 90%
    03:00 +10°C° 1.3 mm 3 mps 736 mmHg 91%
    04:00 +9°C° 1.3 mm 3 mps 736 mmHg 92%
    05:00 +9°C° 1.3 mm 3 mps 736 mmHg 94%
    06:00 +9°C° 0.9 mm 3 mps 736 mmHg 93%
    07:00 +9°C° 0.9 mm 3 mps 736 mmHg 92%
    08:00 +10°C° 0.9 mm 3 mps 736 mmHg 92%
    09:00 +10°C° 0.2 mm 3 mps 736 mmHg 88%
    10:00 +11°C° 0.2 mm 4 mps 736 mmHg 84%
    11:00 +12°C° 0.2 mm 4 mps 736 mmHg 80%
    12:00 +12°C° 0.1 mm 4 mps 736 mmHg 75%
    13:00 +13°C° 0.1 mm 4 mps 736 mmHg 70%
    14:00 +14°C° 0.1 mm 4 mps 736 mmHg 65%
    15:00 +13°C° 0.1 mm 4 mps 736 mmHg 69%
    16:00 +12°C° 0.1 mm 3 mps 736 mmHg 74%
    17:00 +11°C° 0.1 mm 3 mps 736 mmHg 78%
    18:00 +10°C° 0.3 mm 3 mps 736 mmHg 81%
    19:00 +10°C° 0.3 mm 3 mps 736 mmHg 85%
    20:00 +9°C° 0.3 mm 3 mps 736 mmHg 88%
    21:00 +8°C° 0 mm 3 mps 736 mmHg 89%
    22:00 +8°C° 0 mm 3 mps 736 mmHg 90%
    23:00 +7°C° 0 mm 3 mps 736 mmHg 92%

    Day after tomorrow, 24 September, Monday

    Time Temperature Precipitation Wind Pressure Humidity
    00:00 +7°C° 0 mm 3 mps 736 mmHg 92%
    01:00 +7°C° 0 mm 3 mps 736 mmHg 93%
    02:00 +5°C° 0 mm 3 mps 736 mmHg 94%
    03:00 +6°C° 0 mm 2 mps 736 mmHg 95%
    04:00 +6°C° 0 mm 2 mps 736 mmHg 95%
    05:00 +6°C° 0 mm 2 mps 736 mmHg 96%
    06:00 +7°C° 0 mm 2 mps 736 mmHg 93%
    07:00 +7°C° 0 mm 2 mps 736 mmHg 90%
    08:00 +8°C° 0 mm 3 mps 735 mmHg 87%
    09:00 +9°C° 0.1 mm 3 mps 735 mmHg 84%
    10:00 +10°C° 0.1 mm 3 mps 735 mmHg 81%
    11:00 +11°C° 0.1 mm 3 mps 734 mmHg 78%
    12:00 +10°C° 1.3 mm 3 mps 734 mmHg 82%
    13:00 +10°C° 1.3 mm 3 mps 733 mmHg 87%
    14:00 +9°C° 1.3 mm 3 mps 732 mmHg 91%
    15:00 +8°C° 1.5 mm 4 mps 731 mmHg 92%
    16:00 +7°C° 1.5 mm 5 mps 730 mmHg 92%
    17:00 +7°C° 1.5 mm 5 mps 729 mmHg 93%
    18:00 +7°C° 2.4 mm 5 mps 728 mmHg 93%
    19:00 +7°C° 2.4 mm 5 mps 726 mmHg 94%
    20:00 +5°C° 2.4 mm 6 mps 725 mmHg 94%
    21:00 +5°C° 2.9 mm 6 mps 725 mmHg 94%
    22:00 +5°C° 2.9 mm 6 mps 724 mmHg 94%
    23:00 +5°C° 2.9 mm 7 mps 723 mmHg 94%

    25 September, Tuesday

    Time Temperature Precipitation Wind Pressure Humidity
    00:00 +5°C° 2.2 mm 7 mps 723 mmHg 93%
    01:00 +5°C° 2.2 mm 7 mps 723 mmHg 93%
    02:00 +5°C° 2.2 mm 8 mps 723 mmHg 92%
    03:00 +5°C° 1.5 mm 8 mps 724 mmHg 91%
    04:00 +5°C° 1.5 mm 8 mps 724 mmHg 90%
    05:00 +5°C° 1.5 mm 8 mps 725 mmHg 90%
    06:00 +5°C° 1.1 mm 9 mps 726 mmHg 89%
    07:00 +5°C° 1.1 mm 9 mps 727 mmHg 88%
    08:00 +3°C° 1.1 mm 9 mps 728 mmHg 87%
    09:00 +5°C° 0.4 mm 9 mps 729 mmHg 85%
    10:00 +5°C° 0.4 mm 8 mps 730 mmHg 83%
    11:00 +5°C° 0.4 mm 8 mps 731 mmHg 81%
    12:00 +5°C° 0.1 mm 8 mps 732 mmHg 78%
    13:00 +6°C° 0.1 mm 8 mps 733 mmHg 75%
    14:00 +6°C° 0.1 mm 7 mps 734 mmHg 72%
    15:00 +6°C° 0 mm 7 mps 735 mmHg 72%
    16:00 +5°C° 0 mm 6 mps 736 mmHg 73%
    17:00 +5°C° 0 mm 6 mps 737 mmHg 73%
    18:00 +5°C° 0 mm 6 mps 737 mmHg 74%
    19:00 +4°C° 0 mm 6 mps 738 mmHg 75%
    20:00 +4°C° 0 mm 6 mps 739 mmHg 77%
    21:00 +3°C° 0 mm 5 mps 739 mmHg 75%
    22:00 +2°C° 0 mm 5 mps 740 mmHg 74%
    23:00 +2°C° 0 mm 5 mps 740 mmHg 73%

    26 September, Wednesday

    Time Temperature Precipitation Wind Pressure Humidity
    00:00 +1°C° 0 mm 4 mps 741 mmHg 73%
    01:00 +1°C° 0 mm 4 mps 741 mmHg 74%
    02:00 0°C° 0 mm 4 mps 741 mmHg 74%
    03:00 +1°C° 0 mm 4 mps 741 mmHg 76%
    04:00 +1°C° 0 mm 4 mps 741 mmHg 78%
    05:00 +1°C° 0 mm 4 mps 741 mmHg 80%
    06:00 +2°C° 0.1 mm 5 mps 740 mmHg 81%
    07:00 +3°C° 0.1 mm 5 mps 740 mmHg 82%
    08:00 +3°C° 0.1 mm 5 mps 740 mmHg 83%
    09:00 +5°C° 0.7 mm 5 mps 740 mmHg 85%
    10:00 +5°C° 0.7 mm 5 mps 739 mmHg 87%
    11:00 +5°C° 0.7 mm 4 mps 739 mmHg 88%
    12:00 +5°C° 0.7 mm 4 mps 739 mmHg 89%
    13:00 +5°C° 0.7 mm 3 mps 738 mmHg 90%
    14:00 +5°C° 0.7 mm 3 mps 738 mmHg 90%
    15:00 +5°C° 0.4 mm 3 mps 738 mmHg 91%
    16:00 +6°C° 0.4 mm 2 mps 737 mmHg 92%
    17:00 +5°C° 0.4 mm 2 mps 737 mmHg 93%
    18:00 +5°C° 0.7 mm 3 mps 737 mmHg 93%
    19:00 +5°C° 0.7 mm 3 mps 736 mmHg 94%
    20:00 +5°C° 0.7 mm 4 mps 736 mmHg 94%
    21:00 +6°C° 0.5 mm 4 mps 735 mmHg 94%
    22:00 +6°C° 0.5 mm 5 mps 734 mmHg 93%
    23:00 +6°C° 0.5 mm 5 mps 733 mmHg 92%

    27 September, Thursday

    Time Temperature Precipitation Wind Pressure Humidity
    00:00 +7°C° 0.8 mm 6 mps 732 mmHg 92%
    01:00 +6°C° 0.8 mm 7 mps 731 mmHg 91%
    02:00 +6°C° 0.8 mm 7 mps 730 mmHg 90%
    03:00 +8°C° 0.3 mm 7 mps 730 mmHg 90%
    04:00 +8°C° 0.3 mm 7 mps 729 mmHg 90%
    05:00 +8°C° 0.3 mm 7 mps 729 mmHg 90%
    06:00 +9°C° 0.4 mm 7 mps 729 mmHg 89%
    07:00 +9°C° 0.4 mm 7 mps 729 mmHg 88%
    08:00 +9°C° 0.4 mm 7 mps 730 mmHg 87%
    09:00 +10°C° 0.1 mm 6 mps 730 mmHg 82%
    10:00 +10°C° 0.1 mm 6 mps 730 mmHg 77%
    11:00 +10°C° 0.1 mm 6 mps 730 mmHg 72%
    12:00 +10°C° 0.2 mm 5 mps 730 mmHg 73%
    13:00 +11°C° 0.2 mm 4 mps 730 mmHg 75%
    14:00 +11°C° 0.2 mm 3 mps 730 mmHg 76%
    15:00 +10°C° 1 mm 4 mps 729 mmHg 81%
    16:00 +10°C° 1 mm 4 mps 729 mmHg 86%
    17:00 +8°C° 1 mm 5 mps 729 mmHg 91%
    18:00 +8°C° 0.3 mm 4 mps 729 mmHg 92%
    19:00 +8°C° 0.3 mm 4 mps 728 mmHg 93%
    20:00 +8°C° 0.3 mm 4 mps 728 mmHg 93%
    21:00 +9°C° 0.3 mm 3 mps 728 mmHg 94%
    22:00 +9°C° 0.3 mm 3 mps 728 mmHg 94%
    23:00 +9°C° 0.3 mm 3 mps 727 mmHg 94%
    Show more